This is the latest recevied weather packets stored in our database for station/object KE4PKT-13. If no packets are shown the sender has not sent any weather packets the latest 10 day(s).
| Time | Temp. | Humidity | Pressure | Rain* | Wind** | Luminosity | Snow |
|---|---|---|---|---|---|---|---|
| 1788106211 | 86° F | 64% | 765.4 mmHg | 0 in | - | - | - |
| 1788103012 | 83° F | 70% | 765.2 mmHg | 0 in | - | - | - |
| 1788102532 | 82° F | 71% | 765.3 mmHg | 0 in | - | - | - |
| 1788101175 | 82° F | 73% | 765.3 mmHg | 0 in | - | - | - |
| 1788100935 | 81° F | 73% | 765.2 mmHg | 0 in | - | - | - |
| 1788100831 | 81° F | 72% | 765.2 mmHg | 0 in | - | - | - |
| 1788100103 | 80° F | 74% | 765.2 mmHg | 0 in | - | - | - |
| 1788099863 | 80° F | 75% | 765.2 mmHg | 0 in | - | - | - |
| 1788099726 | 79° F | 75% | 765.1 mmHg | 0 in | - | - | - |
| 1788099247 | 79° F | 75% | 765.1 mmHg | 0 in | - | - | - |
| 1788099007 | 80° F | 74% | 765.1 mmHg | 0 in | - | - | - |
| 1788098342 | 80° F | 75% | 765 mmHg | 0 in | - | - | - |
| 1788098102 | 79° F | 76% | 765 mmHg | 0 in | - | - | - |
| 1788097944 | 79° F | 76% | 765 mmHg | 0 in | - | - | - |
| 1788097426 | 79° F | 77% | 765 mmHg | 0 in | - | - | - |
| 1788096464 | 78° F | 78% | 764.9 mmHg | 0 in | - | - | - |
| 1788095984 | 77° F | 81% | 764.9 mmHg | 0 in | - | - | - |
| 1788095920 | 77° F | 82% | 764.8 mmHg | 0 in | - | - | - |
| 1788095803 | 77° F | 80% | 764.8 mmHg | 0 in | - | - | - |
| 1788094842 | 76° F | 84% | 764.8 mmHg | 0 in | - | - | - |
| 1788094125 | 74° F | 86% | 764.9 mmHg | 0 in | - | - | - |
| 1788092737 | 73° F | 86% | 764.8 mmHg | 0 in | - | - | - |
| 1788091775 | 70° F | 90% | 764.8 mmHg | 0 in | - | - | - |
| 1788091296 | 69° F | 91% | 764.7 mmHg | 0 in | - | - | - |
| 1788091056 | 69° F | 90% | 764.7 mmHg | 0 in | - | - | - |
* Rain latest hour (hover to see other rain measurements)
** Current wind speed in m/s (hover to see current wind gust speed)